1st Responders/1st Detectors/Storm Spotters Weather Summary for Powell County, KY

Forecast Maps


Reg. NEXRAD Animation


National Fire Danger: Day 1 & 2 Map

Current NWS Watch/Warnings

SPC Convective Day 1 Outlook


Day 2 Outlook

(Click images to enlarge|Page will refresh every 5 minutes)
UK Ag. Weather Center Desktop Severe Weather Service[HERE]
Powell County, KY Hazardous Weather Outlook Webcast
(9 AM to 9 PM Mon-Fri)
[Fast]
[Dial-up]


UKAWC 1st Detectors/1st Responders Precision Weather Forecast For POWELL County, Kentucky
(based on the NWS County Digital Forecast)

ISSUED AT 01:00 UTC ON MONDAY NOV 30 2020
DAY SUNDAY MONDAY
EDT 3HR 10P 11P MIDN 1A 2A 3A 4A 5A 6A 7A 8A 9A 10A 11A NOON 1P 2P 3P 4P 5P 6P 7P
MAX/MIN -- -- -- -- -- -- -- -- -- -- 38° -- -- -- -- -- -- -- -- -- -- 40°
TEMP 50° 49° 49° 49° 47° 47° 45° 45° 43° 41° 40° 40° 40° 38° 38° 40° 38° 38° 38° 36° 36° 34°
SKY COVER 100% 100% 100% 100% 100% 100% 100% 100% 100% 100% 100% 100% 100% 100% 100% 100% 100% 100% 100% 100% 100% 100%
Clouds
DEW PT 45° 45° 47° 47° 47° 47° 45° 43° 43° 41° 40° 40° 38° 38° 36° 36° 36° 34° 34° 32° 31° 31°
RH 80% 85% 93% 96% 99% 99% 99% 96% 95% 99% 99% 100% 96% 96% 92% 89% 88% 88% 85% 85% 84% 85%
POP 12HR -- -- -- -- -- -- -- -- -- -- 100% -- -- -- -- -- -- -- -- -- -- --
RAIN/SNOW (liq.equ) -- -- -- -- 0.21in -- -- -- -- -- 0.47in -- -- -- -- -- 0.17in -- -- -- -- --
SNOWFALL -- -- -- -- 0in -- -- -- -- -- 0in -- -- -- -- -- 0in -- -- -- -- --
WIND SPEED(MPH) 1 0 1 1 2 6 7 9 9 10 13 13 10 13 13 14 15 14 14 13 13 10
WIND Gust(MPH) 2 2 2 6 7 10 10 13 14 15 16 16 17 21 22 22 22 22 22 22 21 18
WIND DIR N N NW N N N N N N NW NW NW NW NW NW NW NW NW NW NW NW W
DEW -- -- -- -- -- -- -- -- -- -- -- -- -- -- -- -- -- -- -- -- -- --
HeatIndex 50 49 49 49 47 47 45 39 38 35 33 32 32 31 31 32 30 29 29 28 27 26
Snow Showers -- -- -- -- -- -- -- -- -- -- -- -- -- -- -- -- -- -- -- -- Definite Definite
Rain Chance Likely Definite Definite Definite Definite Definite Definite Definite Definite Definite Definite Definite Definite Definite Definite -- -- -- -- -- --
Rain Showers -- -- -- -- -- -- -- -- -- -- -- -- -- -- -- -- Definite Definite Definite Definite Definite Definite
WIND CHILL -- -- -- -- -- -- 41° 40° 38° 35° 33° 33° 34° 30° 30° 32° 29° 30° 30° 28° 28° 26°
SPRAY COND
DRY COND
LIVESTOCK COLDSTRESS



DAY MONDAY TUESDAY WEDNESDAY THURSDAY FRIDAY SATURDAY SUNDAY
EDT 6HR 8P 9P 10P 11P MIDN 1A 2A 3A 4A 5A 6A 7A 8A 9A 11A 2P 5P 8P 11P 2A 5A 8A 11A 2P 5P 8P 2A 8A 2P 8P 2A 8A 2P 8P 2A 8A 2P 8P 2A 8A 2P 8P
MAX/MIN -- -- -- -- -- -- -- -- -- -- -- -- 25° -- -- -- 36° -- -- -- -- 20° -- -- 45° -- -- 23° 47° -- -- 34° 47° -- -- 29° 43° -- -- 29° 45° --
TEMP 34° 32° 31° 31° 31° 31° 31° 29° 29° 29° 27° 27° 25° 25° 29° 34° 36° 29° 25° 23° 20° 20° 31° 43° 43° 31° 25° 25° 45° 38° 34° 34° 47° 43° 32° 29° 43° 36° 31° 29° 43° 38°
SKY COVER 100% 100% 100% 100% 100% 100% 100% 100% 100% 100% 98% 96% 94% 90% 71% 60% 38% 16% 6% 2% 0% 1% 1% 4% 2% 5% 31% 68% 77% 75% 87% 84% 84% 77% 68% 69% 45% 45% 41% 47% 35% 39%
Clouds
DEW PT 31° 29° 29° 27° 27° 27° 25° 25° 23° 22° 22° 22° 22° 22° 23° 22° 20° 20° 18° 18° 18° 18° 22° 23° 23° 23° 22° 25° 31° 31° 32° 34° 38° 36° 29° 29° 31° 29° 27° 27° 31° 29°
RH 89% 88% 88% 85% 84% 84% 81% 81% 80% 77% 78% 80% 91% 88% 77% 63% 51% 68% 77% 77% 87% 87% 68% 46% 44% 74% 92% 99% 55% 75% 92% 99% 70% 76% 88% 95% 62% 75% 88% 92% 61% 72%
POP 12HR 100% -- -- -- -- -- -- -- -- -- -- -- 85% -- -- -- -- 16% -- -- -- 0% -- -- -- 0% -- 6% -- 25% -- 37% -- 35% -- 30% -- 35% -- 26% -- 13%
RAIN/SNOW (liq.equ) 0.06in -- -- -- -- -- 0.07in -- -- -- -- -- 0.03in -- -- 0.01in -- 0.00in -- 0.00in -- 0.00in -- 0.00in -- 0.00in -- -- -- -- -- -- -- -- -- -- -- -- -- -- -- --
SNOWFALL 0in -- -- -- -- -- 0in -- -- -- -- -- 0in -- -- 0in -- 0in -- 0in -- 0in -- 0in -- 0in -- -- -- -- -- -- -- -- -- -- -- -- -- -- -- --
WIND SPEED(MPH) 10 13 10 10 10 10 10 10 9 9 9 8 7 8 9 14 10 6 6 5 2 2 6 7 6 1 1 1 2 1 1 1 5 5 5 6 8 7 6 7 10 7
WIND DIR W W W W W W W W W W W W W W W W W W W W SW SW SW SW SW SW S SE S SE S S SW W W W W W W SW W W
HeatIndex 25 23 23 23 23 21 21 20 19 19 18 18 16 16 21 24 29 22 18 18 16 16 25 38 40 31 25 25 45 38 34 34 47 40 28 23 37 30 25 23 36 32
Snow Showers Definite Definite Likely Likely Likely Likely Likely Chance Chance Chance Chance Chance Slight Chance Slight Chance -- -- -- -- -- -- -- -- -- -- -- -- -- -- -- -- Chance Chance -- -- Chance Chance -- Chance Slight Chance -- -- --
Rain -- -- -- -- -- -- -- -- -- -- -- -- -- -- -- -- -- -- -- -- -- -- -- -- -- -- -- -- -- -- -- -- -- -- -- -- -- -- -- -- -- --
Rain Showers Definite -- -- -- -- -- -- -- -- -- -- -- -- -- -- -- -- -- -- -- -- -- -- -- -- -- -- -- Slight Chance Chance Chance Chance Chance Chance -- -- Chance Chance -- -- -- --
WIND CHILL 26° 23° 23° 23° 23° 23° 23° 20° 21° 21° 18° 19° 17° 17° 21° 25° 29° 23° 18° 17° -- -- 25° 39° 39° -- -- -- -- -- -- -- -- 40° 28° 23° 38° 30° 25° 22° 37° 33°
SPRAY COND
DRY COND
LIVESTOCK COLDSTRESS

Click on individual weather variable above in left-hand column (ie., TEMP, RH, QPF 12HR) to view state forecast maps






NWS 48 Hr. Forecast Maps,

Regional Hourly Observations For POWELL County, Kentucky
Issued at 800 PM EST SUN NOV 29 2020
NORTHEAST KENTUCKY
  
CITY           SKY/WX    TMP DP  RH WIND       PRES   REMARKS
LEXINGTON      CLOUDY    50  41  71 CALM      29.88F                  
COVINGTON      CLOUDY    47  36  65 CALM      29.89F                  
FRANKFORT      CLOUDY    50  43  77 NW3       29.88F                  


Current NOWCAST not available:
Nowcasts are not issued routinely during fair weather. Only when
precipitation or other significant weather is occuring in this county will these
forecasts be issued. Currently, there is no short term forecast in effect.


Fire Weather Forecast For POWELL County, KY
Provided by the National Weather Service:

Issued at: Sun Nov 29 20:05:01 EST 2020

403 PM EST Sun Nov 29 2020

                      Tonight      Mon          Mon Night    Tue          

Cloud Cover           Cloudy       Cloudy       Cloudy       Mcldy        
Chance precip (%)     100          100          90           30           
Precip type           showers      showers      snow showers snow showers 
Temp (24H TREND)      38 (+10)     44 (-13)     25           35           
Rh % (24H TREND)      100 (+1)     81 (+27)     100          53           
20ftwnd-AM(mph)                    NW 9-13 G23               W 7-11 G22   
20ftwnd-PM(mph)       Lgt/Var      NW 9-13 G22  W 8-12 G20   W 8-12 G22   
Precip duration       5            8            4            1            
Precip begin          7 PM         Continuing   Continuing                
Precip end            Continuing   Continuing   Continuing                
Precip amount         0.63         0.27         0.12         0.02         
LAL                   1            1            1            1            
Haines Index (MID)                 2                         2            
Mixing hgt(ft-AGL)                 2500                      3100         
Transport wnd (mph)                NW 22                     W 20         
Vent rate (kt-ft)                  47680                     53375        
ADI Early             2 Very Poor  40 Fair      20 Gen Poor  43 Gen Good  
ADI Late              24 Fair      49 Gen Good  34 Fair      51 Gen Good  
Max LVORI Early       7            5            5            4            
Max LVORI Late        7            4            4            3            

Remarks...None.


SPC's Fire Weather Web Tool (Excellent!), SPC's Fire Weather Outlooks, NWS Fire Weather WEB, Fire Danger Class Map,
Keetch-Byram Drought Index, ROMAN Web, Haines Index ,
WFAS's 10-hr Dead Fuel Moist., WFAS's 100-hr Dead Fuel Moist., Probablity of Ignition, Visual blackness Map, Palmer Drought Index, HPC's Rainfall Forecast Maps


Hazardous Weather Outlook For POWELL County, Kentucky
352 PM EST Sun Nov 29 2020

   WINTER WEATHER ADVISORY IN EFFECT FROM 4 PM MONDAY TO 7 AM EST
TUESDAY  

This hazardous weather outlook is for portions of eastern Kentucky.

 DAY ONE  Tonight.

No hazardous weather is expected. 

 DAYS TWO THROUGH SEVEN  Monday through Saturday.

A strong weather system will bring the first accumulating snow of
the season to eastern Kentucky from Monday afternoon through 
Tuesday. Generally, light snow accumulations are expected with the
highest amounts generally expected on the ridges.

 SPOTTER INFORMATION STATEMENT  

Spotters are encouraged to provide snow reports From Monday
afternoon through Tuesday.

Latest POWELL County, Kentucky Watches, Warnings and Advisories.
Additional Drought Info.: UKAWC Drought Page, Kentucky Drought Watch


7-Day Forecast For POWELL County, KY


WINTER WEATHER ADVISORY IN EFFECT FROM 4 PM MONDAY TO 7 AM EST TUESDAY

TONIGHT
A chance of showers in the evening, then showers. Patchy fog. Lows in the upper 30s. Light winds becoming north around 10 mph late. Chance of rain near 100 percent.

MONDAY
Patchy fog. Rain showers in the morning, then rain or snow showers in the afternoon. Little or no snow accumulation. Highs in the lower 40s. Northwest winds around 10 mph. Chance of precipitation near 100 percent.

MONDAY NIGHT
Cold. Rain showers in the evening. Snow showers through the night. Snow accumulation of 1 to 2 inches. Lows in the mid 20s. West winds around 10 mph. Chance of precipitation 90 percent.

TUESDAY
Mostly cloudy in the morning then becoming mostly sunny. A 20 percent chance of snow showers. Highs in the mid 30s. West winds around 10 mph.

TUESDAY NIGHT
Cold, clear. Lows in the lower 20s. Light winds.

WEDNESDAY
Sunny. Highs in the mid 40s.

WEDNESDAY NIGHT
Cold. Partly cloudy. Lows in the mid 20s.

THURSDAY
Mostly cloudy with a 20 percent chance of rain showers. Highs in the upper 40s.

THURSDAY NIGHT
Mostly cloudy with a 40 percent chance of rain or snow showers. Lows in the mid 30s.

FRIDAY
Mostly cloudy with a 40 percent chance of rain showers. Highs in the upper 40s.

FRIDAY NIGHT
Mostly cloudy with a 30 percent chance of rain or snow showers. Lows in the lower 30s.

SATURDAY
Mostly sunny with a 40 percent chance of rain or snow showers. Highs in the mid 40s.

SATURDAY NIGHT
Cold. Partly cloudy with a 30 percent chance of snow or rain showers. Lows around 30.

SUNDAY
Mostly sunny. Highs in the mid 40s.

Ag Weather Center, Department of Biosystems & Agricultural Engineering, University of Kentucky